Regional Weather Roundup
Issued by NWS Charleston, WV

Home | Current Version | Previous Version | Text Only | Print | Product List | Glossary Off
Versions: 1 2 3 4 5 6 7 8 9 10 11 12 13 14 15 16 17 18 19 20 21 22 23 24 25 26 27 28 29 30 31 32 33 34 35 36 37 38 39 40 41 42 43 44 45 46 47 48 49 50

000
ASUS41 KRLX 282210
RWRRLX
West Virginia Regional Weather Roundup
National Weather Service Charleston WV
600 PM EDT SAT MAR 28 2015

Note: "fair" indicates few or no clouds below 12,000 feet with no
significant weather and/or obstructions to visibility.

WVZ003-282300-
Northern Panhandle of West Virginia

CITY           SKY/WX    TMP DP  RH WIND       PRES   REMARKS
WHEELING       MOSUNNY   30   6  36 NW15      30.17R
$$

WVZ009-282300-
Northwest West Virginia

CITY           SKY/WX    TMP DP  RH WIND       PRES   REMARKS
PARKERSBURG    MOSUNNY   34   8  33 NW10      30.26R
$$

WVZ006-282300-
Western West Virginia

CITY           SKY/WX    TMP DP  RH WIND       PRES   REMARKS
HUNTINGTON     SUNNY     37   7  28 NW7       30.24R
$$

WVZ015-282300-
West Central West Virginia

CITY           SKY/WX    TMP DP  RH WIND       PRES   REMARKS
CHARLESTON     MOSUNNY   35   5  28 NW7G21    30.22R
$$

WVZ022-031-282300-
North Central West Virginia

CITY           SKY/WX    TMP DP  RH WIND       PRES   REMARKS
CLARKSBURG     PTSUNNY   30   7  37 NW6       30.16R
MORGANTOWN       N/A     31   4  31 NW9G16    30.15R
$$

WVZ025-035-042-045-282300-
Southern West Virginia

CITY           SKY/WX    TMP DP  RH WIND       PRES   REMARKS
BECKLEY        SUNNY     29   5  36 NW12G20   30.11R
LOGAN            N/A     32   5  32 VRB7G16   30.15R
BLUEFIELD      SUNNY     31   5  33 NW16G23   30.08R
LEWISBURG      SUNNY     31   3  31 N13G21    30.09R
$$

WVZ047-282300-
Northern Mountains of West Virginia

CITY           SKY/WX    TMP DP  RH WIND       PRES   REMARKS
ELKINS         FLURRIES  24  11  57 NW12      30.12R
$$

WVZ052-282300-
Eastern Panhandle of West Virginia

CITY           SKY/WX    TMP DP  RH WIND       PRES   REMARKS
MARTINSBURG    CLOUDY    33   8  35 NW21G31   30.11R
PETERSBURG     PTSUNNY   31   6  35 NW17G26   30.14R
$$


USA.gov is the U.S. government's official web portal to all federal, state and local government web resources and services.